Regional Weather Roundup
Issued by NWS

Home | Current Version | Previous Version | Graphics & Text | Print | Product List | Glossary Off
Versions: 1 2 3 4 5 6 7 8 9 10 11 12 13 14 15 16 17 18 19 20 21 22 23 24 25 26 27 28 29 30 31 32 33 34 35 36 37 38 39 40 41 42 43 44 45 46 47 48 49 50

000
ASUS43 KTOP 030659
RWRKS

WEATHER ROUNDUP FOR KANSAS
NATIONAL WEATHER SERVICE GOODLAND KS
200 AM CDT WED JUN 03 2015

NOTE:  "FAIR" INDICATES FEW OR NO CLOUDS BELOW 12,000 FEET WITH NO
SIGNIFICANT WEATHER AND/OR OBSTRUCTIONS TO VISIBILITY.

KSZ001>006-013>018-027>032-041>047-030800-
NORTHWEST KANSAS

CITY           SKY/WX    TMP DP  RH WIND       PRES   REMARKS
GOODLAND       CLEAR     67  61  81 S13       29.80F
HAYS           CLEAR     72  61  68 S13       29.81S
HILL CITY      CLEAR     74  62  66 S14G23    29.77F
RUSSELL        CLEAR     73  65  75 S18       29.80S
$$

KSZ061>065-074>080-084>089-030800-
SOUTHWEST KANSAS

CITY           SKY/WX    TMP DP  RH WIND       PRES   REMARKS
DODGE CITY     CLEAR     69  61  75 S13       29.85S
ELKHART          N/A     68  56  65 S15         N/A
GARDEN CITY    CLEAR     67  61  81 S10       29.81F
GREAT BEND     CLEAR     72  64  78 S16G22    29.82F
LIBERAL        CLEAR     70  61  73 S13       29.85F
$$

KSZ066>073-081>083-090>101-030800-
SOUTHEAST KANSAS

CITY           SKY/WX    TMP DP  RH WIND       PRES   REMARKS
CHANUTE        CLEAR     69  67  93 SE8       29.93F
COFFEYVILLE    CLEAR     70  67  90 SE6       29.93S
HUTCHINSON     CLEAR     73  66  78 S14       29.86S
MEDICINE LODGE   N/A     71  65  81 S8G16     29.86S
NEWTON         CLEAR     72  63  73 S13       29.90S
PARSONS        CLEAR     71  67  87 SE6       29.94F
WICHITA INTL   PTCLDY    73  66  78 S16       29.87S
WICHITA JABRA  CLEAR     72  66  81 S12       29.88S
WINFIELD       CLEAR     72  66  81 S13       29.90F
$$

KSZ007>012-019>026-033>040-048>060-102>105-030800-
NORTHEAST KANSAS

CITY           SKY/WX    TMP DP  RH WIND       PRES   REMARKS
CONCORDIA      PTCLDY    70  66  87 SE13      29.85S
EMPORIA        CLEAR     69  66  90 SE13      29.90S
LAWRENCE       MOCLDY    66  59  78 SE9       29.94S
MANHATTAN      CLEAR     70  67  90 VRB5      29.88S
OLATHE IND     CLEAR     64  60  87 SE12      29.96R
OLATHE EXE     PTCLDY    64  59  83 SE9       29.95S
SALINA         CLEAR     73  67  81 SE12      29.85R
TOPEKA BILLARD CLOUDY    69  63  81 SE12      29.92S
TOPEKA FORBES  PTCLDY    69  63  81 SE13      29.91S
$$


USA.gov is the U.S. government's official web portal to all federal, state and local government web resources and services.